Location: *
(49.0044°N, 9.5056°E)
Time: 06:17:00
(UTC+00:00)

GENESIS II - Pass Details

Date: 22 September 2019
Orbit: 479 x 550 km, 64.5° (Epoch: 20 October)

Event Time Altitude Azimuth Distance (km) Brightness Sun altitude
Rises 18:31:12 0° 319° (NW) 2,732 8.9 -12.2°
Reaches altitude 10° 18:33:25 10° 318° (NW) 1,834 7.9 -12.6°
Maximum altitude 18:37:33 77° 233° (SW) 568 4.4 -13.3°
Enters shadow 18:40:52 15° 148° (SSE) 1,516 6.1 -13.8°
